Location: Newark
(52.3500°N, 175.9667°E)
Time: 19:21:58
(UTC+00:00)

N. Korean satellite - Pass Details

Date: 06 March 2021
Orbit: 452 x 499 km, 97.2° (Epoch: 15 April)

Event Time Altitude Azimuth Distance (km) Brightness Sun altitude
Rises 16:36:36 0° 30° (NNE) 2,534 11.0 -20.9°
Reaches altitude 10° 16:39:34 10° 58° (ENE) 1,661 10.4 -20.5°
Maximum altitude 16:41:23 13° 89° (E) 1,461 10.0 -20.2°
Drops below altitude 10° 16:43:13 10° 120° (ESE) 1,667 9.8 -19.9°
Sets 16:46:12 0° 148° (SSE) 2,552 10.4 -19.5°
